Air Force Academy, CO

7:12 PM MST on November 14, 2019 (GMT -0700)
Usaf Academy

Weather History for KAFF - May, 2019

Change the Weather History Date:

Friday, May 17, 2019

  Actual Average Record
Temperature  
Mean Temperature 58 °F -  
Max Temperature 73 °F 65 °F 84 °F (2018)
Min Temperature 43 °F 39 °F 30 °F (1999)
Degree Days  
Heating Degree Days 6    
Growing Degree Days 8 (Base 50)    
Moisture  
Dew Point 25 °F    
Average Humidity 29    
Maximum Humidity 70    
Minimum Humidity 13    
Precipitation  
Precipitation 0.00 in - - ()
Sea Level Pressure  
Sea Level Pressure 29.55 in    
Wind  
Wind Speed 11 mph (SW)    
Max Wind Speed 28 mph    
Max Gust Speed 38 mph    
Visibility 10 miles    
Events      
Averages and records for this station are not official NWS values.
T = Trace of Precipitation, MM = Missing Value Source: NWS Daily Summary

Daily Weather History Graph

Daily Weather History Graph

Search for Another Location

Airport or City:

Astronomy

May. 17, 2019 Rise Set
Actual Time 5:44 AM MDT 8:06 PM MDT
Civil Twilight 5:14 AM MDT 8:37 PM MDT
Nautical Twilight 4:37 AM MDT 9:14 PM MDT
Astronomical Twilight 3:56 AM MDT 9:55 PM MDT
Moon 6:58 PM MDT (5/17) 5:16 AM MDT (5/17)
Length of Visible Light 15h 22m
Length of Day
14h 21m
Waxing Gibbous, 98% of the Moon is Illuminated
May 17
Waxing Gibbous
May 18
Full
May 26
Last Quarter
Jun 3
New
Jun 10
First Quarter

Hourly Weather History & Observations

Time (MDT) Temp. Windchill Dew Point Humidity Pressure Visibility Wind Dir Wind Speed Gust Speed Precip Events Conditions
12:56 AM 57.7 °F - 29.5 °F 34% 29.50 in 10.0 mi East 6.9 mph - N/A   Clear
1:56 AM 48.0 °F - 32.5 °F 55% 29.52 in 10.0 mi NW 6.9 mph - N/A   Clear
2:56 AM 50.7 °F - 32.2 °F 49% 29.52 in 10.0 mi Calm Calm - N/A   Clear
3:56 AM 45.9 °F 42.9 °F 32.7 °F 60% 29.51 in 10.0 mi NNW 5.8 mph - N/A   Clear
4:56 AM 45.1 °F 42.0 °F 32.5 °F 61% 29.47 in 10.0 mi North 5.8 mph - N/A   Partly Cloudy
5:56 AM 48.2 °F - 31.5 °F 52% 29.47 in 10.0 mi NNE 6.9 mph - N/A   Partly Cloudy
6:56 AM 53.4 °F - 32.5 °F 45% 29.46 in 10.0 mi ESE 3.5 mph - N/A   Partly Cloudy
7:56 AM 61.0 °F - 28.4 °F 29% 29.44 in 10.0 mi SE 6.9 mph - N/A   Clear
8:56 AM 65.3 °F - 25.5 °F 22% 29.43 in 10.0 mi SSW 8.1 mph - N/A   Clear
9:56 AM 66.9 °F - 25.7 °F 21% 29.41 in 10.0 mi SE 16.1 mph - N/A   Clear
10:06 AM 68.0 °F - 24.8 °F 20% 29.40 in 10.0 mi South 16.1 mph 21.9 mph N/A   Clear
10:09 AM 68.0 °F - 23.0 °F 18% 29.40 in 10.0 mi SSE 16.1 mph 24.2 mph N/A   Clear
10:23 AM 68.0 °F - 19.4 °F 16% 29.38 in 10.0 mi SSW 24.2 mph 34.5 mph N/A   Clear
10:56 AM 68.5 °F - 17.4 °F 14% 29.36 in 10.0 mi South 27.6 mph 35.7 mph N/A   Clear
11:56 AM 69.3 °F - 19.6 °F 15% 29.36 in 10.0 mi South 19.6 mph 31.1 mph N/A   Clear
12:37 PM 69.8 °F - 19.4 °F 15% 29.34 in 10.0 mi SSE 16.1 mph 32.2 mph N/A   Mostly Cloudy
12:58 PM 70.2 °F - 17.1 °F 13% 29.59 in 10.0 mi SSE 24.2 mph 34.5 mph N/A   Scattered Clouds
2:14 PM 69.8 °F - 21.2 °F 16% 29.56 in 10.0 mi SW 17.3 mph 25.3 mph N/A   Scattered Clouds
2:47 PM 73.4 °F - 23.0 °F 15% 29.57 in 10.0 mi SSW 18.4 mph 25.3 mph N/A   Partly Cloudy
2:58 PM 70.9 °F - 20.8 °F 15% 29.56 in 10.0 mi SW 16.1 mph - N/A   Partly Cloudy
3:02 PM 69.8 °F - 19.4 °F 15% 29.57 in 10.0 mi WSW 15.0 mph - N/A   Clear
3:20 PM 68.0 °F - 23.0 °F 18% 29.57 in 10.0 mi SSW 15.0 mph - N/A   Partly Cloudy
3:30 PM 68.0 °F - 24.8 °F 20% 29.57 in 10.0 mi WSW 18.4 mph 25.3 mph N/A   Scattered Clouds
3:58 PM 69.4 °F - 24.1 °F 18% 29.57 in 10.0 mi West 16.1 mph 29.9 mph N/A   Scattered Clouds
4:02 PM 69.8 °F - 24.8 °F 18% 29.58 in 10.0 mi SW 15.0 mph 29.9 mph N/A   Scattered Clouds
4:58 PM 65.8 °F - 25.9 °F 22% 29.59 in 10.0 mi West 18.4 mph 25.3 mph N/A   Scattered Clouds
5:04 PM 66.2 °F - 23.0 °F 19% 29.59 in 10.0 mi WSW 13.8 mph 25.3 mph N/A   Scattered Clouds
5:58 PM 61.7 °F - 24.4 °F 24% 29.60 in 10.0 mi West 18.4 mph 38.0 mph N/A   Clear
6:41 PM 60.8 °F - 19.4 °F 20% 29.63 in 10.0 mi West 24.2 mph 35.7 mph N/A   Clear
6:47 PM 60.8 °F - 17.6 °F 19% 29.64 in 10.0 mi WNW 11.5 mph 35.7 mph N/A   Clear
6:58 PM 60.3 °F - 17.8 °F 19% 29.65 in 10.0 mi West 8.1 mph 21.9 mph N/A   Clear
7:33 PM 59.0 °F - 14.0 °F 17% 29.67 in 10.0 mi NW 18.4 mph 25.3 mph N/A   Clear
7:58 PM 54.7 °F - 28.2 °F 36% 29.70 in 10.0 mi NW 4.6 mph - N/A   Clear
8:58 PM 46.6 °F - 35.8 °F 66% 29.74 in 10.0 mi NNE 8.1 mph - N/A   Clear
9:58 PM 44.1 °F 38.1 °F 34.9 °F 70% 29.77 in 10.0 mi North 11.5 mph - N/A   Clear
10:58 PM 46.8 °F - 28.0 °F 48% 29.78 in 10.0 mi WNW 4.6 mph - N/A   Partly Cloudy
11:58 PM 43.2 °F 39.0 °F 22.1 °F 43% 29.76 in 10.0 mi ENE 6.9 mph - N/A   Partly Cloudy